User: anonymous   Login
Location: Unspecified
(0.0000°N, 0.0000°E)
Time: 19:31:52
(UTC+00:00)
Language:

Amsat-Oscar-6 - Orbit

View from above orbital plane
View from above orbital plane
View from above satellite
View from above satellite

Ground track
Ground track

The orbit data is extracted from the following two-line orbital elements,

1  6236U 72082B   19340.77281362 -.00000030 +00000-0 +98688-4 0  9996
2  6236 101.8509 308.5203 0004467 024.3663 040.8200 12.53153276156280
Epoch (UTC): 06 December 2019 18:32:51
Eccentricity: 0.0004467
inclination: 101.8509°
perigee height: 1448 km
apogee height: 1455 km
right ascension of ascending node: 308.5203°
argument of perigee: 24.3663°
revolutions per day: 12.53153276
mean anomaly at epoch: 40.8200°
orbit number at epoch: 15628

The dashed part of the orbit path shows where the satellite is in the earth's shadow,  

DLR